Simultaneous Nadir Overpasses (SNOs) Predictions

Prediction of SNOs between METOP-B and NOAA-19 Satellite Orbit:

Table of predicted SNOs for the next 14.0 days since TLE Epoch: 7/28/2017
Index Date (METOP-B) Time (METOP-B) Lat,Lon (METOP-B) SZA (METOP-B ) Date (NOAA-19) Time (NOAA-19) Lat,Lon (NOAA-19) SZA (NOAA-19 ) Distance(km) Time Diff (sec)
1 08/07/2017 10:33:40 77.44, 27.12 61.11 08/07/2017 10:32:38 77.43, 27.14 61.09 1.64 62
2 08/07/2017 11:24:22 -77.43,-165.61 118.90 08/07/2017 11:23:34 -77.41,-165.53 118.92 2.51 48
3 08/07/2017 12:15:02 77.42, 1.69 61.11 08/07/2017 12:14:39 77.40, 1.74 61.09 2.06 23
4 08/07/2017 13:05:44 -77.41, 168.97 118.90 08/07/2017 13:05:35 -77.39, 169.07 118.92 3.20 9
5 08/07/2017 13:56:24 77.40, -23.74 61.10 08/07/2017 13:56:40 77.38, -23.66 61.09 2.60 16
6 08/07/2017 14:47:06 -77.39, 143.54 118.90 08/07/2017 14:47:37 -77.41, 143.48 118.88 2.80 31
7 08/07/2017 15:37:46 77.38, -49.17 61.10 08/07/2017 15:38:41 77.36, -49.06 61.09 3.20 55
8 08/07/2017 16:28:28 -77.37, 118.11 118.90 08/07/2017 16:29:38 -77.39, 118.08 118.88 2.31 70




NCC Satellite Simultaneous Nadir Overpasses (SNOs) Prediction Service
